| time (UTC) | temp F | wind direction | speed MPH | gust MPH | rain 1hr in | rain 24hr in | rain mn in | humidity % | barometer mb |
| 20260506123055 | 51 | 238 | 2.0 | 5.0 | 0.00 | 0.48 | 0.05 | 100 | 1012.6 |
| 20260506121600 | 50 | 0 | 0.0 | 6.0 | 0.00 | 0.48 | 0.05 | 100 | 1012.7 |
| 20260506114556 | 51 | 55 | 2.0 | 7.0 | 0.00 | 0.48 | 0.05 | 100 | 1012.7 |
| 20260506113054 | 50 | 118 | 1.0 | 4.0 | 0.00 | 0.48 | 0.05 | 100 | 1012.9 |
| 20260506111557 | 48 | 0 | 1.0 | 3.0 | 0.00 | 0.48 | 0.05 | 100 | 1013.0 |
| 20260506110055 | 48 | 247 | 1.0 | 5.0 | 0.00 | 0.48 | 0.05 | 99 | 1013.0 |
| 20260506104601 | 48 | 128 | 0.0 | 3.0 | 0.00 | 0.48 | 0.05 | 98 | 1013.0 |
| 20260506103056 | 48 | 0 | 0.0 | 6.0 | 0.00 | 0.48 | 0.05 | 98 | 1012.9 |
| 20260506101557 | 49 | 49 | 1.0 | 5.0 | 0.00 | 0.48 | 0.05 | 98 | 1013.0 |
| 20260506100109 | 47 | 194 | 1.0 | 6.0 | 0.00 | 0.48 | 0.05 | 98 | 1012.9 |
| 20260506094555 | 48 | 56 | 1.0 | 7.0 | 0.00 | 0.48 | 0.05 | 98 | 1012.9 |
| 20260506093056 | 47 | 157 | 1.0 | 5.0 | 0.00 | 0.48 | 0.05 | 98 | 1012.7 |
| 20260506091556 | 47 | 210 | 1.0 | 5.0 | 0.00 | 0.48 | 0.05 | 98 | 1012.6 |
| 20260506090053 | 47 | 165 | 0.0 | 4.0 | 0.00 | 0.48 | 0.05 | 99 | 1012.7 |
| 20260506084602 | 46 | 0 | 1.0 | 6.0 | 0.00 | 0.48 | 0.05 | 99 | 1012.7 |
| 20260506083058 | 45 | 108 | 1.0 | 4.0 | 0.00 | 0.48 | 0.05 | 99 | 1012.5 |
| 20260506081555 | 45 | 206 | 1.0 | 3.0 | 0.00 | 0.47 | 0.04 | 99 | 1012.5 |
| 20260506073057 | 45 | 156 | 1.0 | 7.0 | 0.01 | 0.47 | 0.04 | 99 | 1012.3 |
| 20260506071559 | 45 | 86 | 1.0 | 6.0 | 0.03 | 0.47 | 0.04 | 100 | 1012.2 |
| 20260506061600 | 44 | 293 | 3.0 | 7.0 | 0.00 | 0.47 | 0.01 | 100 | 1011.7 |
| 20260506050104 | 44 | 0 | 0.0 | 6.0 | 0.00 | 0.48 | 0.00 | 100 | 1011.1 |
| 20260506044557 | 44 | 0 | 2.0 | 7.0 | 0.00 | 0.57 | 0.00 | 100 | 1011.1 |
| 20260506043056 | 44 | 236 | 2.0 | 5.0 | 0.00 | 0.57 | 0.00 | 100 | 1011.2 |
| 20260506041602 | 44 | 0 | 1.0 | 4.0 | 0.00 | 0.57 | 0.00 | 100 | 1011.2 |
| 20260506040110 | 44 | 159 | 2.0 | 5.0 | 0.00 | 0.57 | 0.00 | 100 | 1011.1 |
| 20260506034555 | 44 | 229 | 1.0 | 5.0 | 0.00 | 0.58 | 0.00 | 100 | 1011.1 |
| 20260506033056 | 44 | 179 | 2.0 | 6.0 | 0.00 | 0.58 | 0.00 | 100 | 1011.2 |
| 20260506031556 | 45 | 0 | 2.0 | 6.0 | 0.00 | 0.58 | 0.00 | 100 | 1011.0 |
| 20260506030107 | 45 | 53 | 2.0 | 7.0 | 0.00 | 0.58 | 0.00 | 100 | 1011.2 |
| 20260506024718 | 45 | 163 | 1.0 | 6.0 | 0.00 | 0.60 | 0.00 | 100 | 1011.2 |
| 20260506023054 | 45 | 0 | 1.0 | 6.0 | 0.00 | 0.60 | 0.00 | 100 | 1011.2 |
| 20260506021559 | 45 | 124 | 2.0 | 4.0 | 0.00 | 0.60 | 0.00 | 100 | 1011.3 |
| 20260506020055 | 45 | 227 | 1.0 | 7.0 | 0.00 | 0.60 | 0.00 | 100 | 1011.2 |
| 20260506014603 | 45 | 179 | 1.0 | 7.0 | 0.00 | 0.64 | 0.00 | 100 | 1011.1 |
| 20260506013056 | 45 | 0 | 1.0 | 7.0 | 0.00 | 0.64 | 0.00 | 100 | 1011.0 |
| 20260506011556 | 46 | 180 | 2.0 | 8.0 | 0.00 | 0.64 | 0.00 | 100 | 1011.2 |
| 20260506010105 | 46 | 201 | 2.0 | 8.0 | 0.00 | 0.64 | 0.00 | 100 | 1011.3 |
| 20260506004602 | 46 | 186 | 2.0 | 8.0 | 0.00 | 0.66 | 0.00 | 100 | 1011.3 |
| 20260506003058 | 46 | 192 | 3.0 | 7.0 | 0.00 | 0.66 | 0.00 | 100 | 1011.5 |
| 20260506001601 | 46 | 134 | 1.0 | 3.0 | 0.00 | 0.66 | 0.00 | 100 | 1011.6 |
| 20260506000059 | 46 | 155 | 2.0 | 8.0 | 0.00 | 0.66 | 0.00 | 100 | 1011.6 |
| 20260505234554 | 46 | 225 | 2.0 | 7.0 | 0.00 | 0.70 | 0.00 | 100 | 1011.9 |
| 20260505233116 | 46 | 216 | 1.0 | 4.0 | 0.00 | 0.70 | 0.00 | 100 | 1011.8 |
| 20260505231557 | 46 | 181 | 2.0 | 9.0 | 0.00 | 0.70 | 0.00 | 100 | 1012.0 |
| 20260505230058 | 46 | 120 | 1.0 | 6.0 | 0.00 | 0.70 | 0.00 | 100 | 1012.1 |
| 20260505224554 | 46 | 0 | 1.0 | 3.0 | 0.00 | 0.74 | 0.00 | 100 | 1012.1 |
| 20260505223100 | 46 | 57 | 1.0 | 4.0 | 0.00 | 0.74 | 0.00 | 100 | 1012.3 |
| 20260505221603 | 46 | 163 | 0.0 | 3.0 | 0.00 | 0.74 | 0.00 | 100 | 1012.5 |
| 20260505220059 | 46 | 157 | 0.0 | 3.0 | 0.00 | 0.74 | 0.00 | 100 | 1012.7 |
| 20260505214559 | 46 | 140 | 0.0 | 6.0 | 0.00 | 0.74 | 0.74 | 100 | 1012.5 |
| 20260505213102 | 46 | 168 | 0.0 | 2.0 | 0.00 | 0.74 | 0.74 | 100 | 1012.8 |
| 20260505211602 | 45 | 168 | 1.0 | 3.0 | 0.00 | 0.74 | 0.74 | 100 | 1013.0 |
| 20260505210103 | 45 | 0 | 0.0 | 4.0 | 0.00 | 0.74 | 0.74 | 100 | 1013.0 |
| 20260505204554 | 46 | 200 | 0.0 | 3.0 | 0.00 | 0.88 | 0.74 | 100 | 1013.2 |
| 20260505203059 | 46 | 225 | 1.0 | 5.0 | 0.00 | 0.88 | 0.74 | 100 | 1013.1 |
| 20260505201557 | 45 | 165 | 1.0 | 4.0 | 0.00 | 0.88 | 0.74 | 100 | 1012.9 |
| 20260505200056 | 45 | 209 | 1.0 | 3.0 | 0.00 | 0.88 | 0.74 | 100 | 1012.7 |
| 20260505194601 | 45 | 194 | 0.0 | 3.0 | 0.00 | 1.07 | 0.74 | 100 | 1012.5 |
| 20260505193125 | 45 | 0 | 0.0 | 3.0 | 0.01 | 1.07 | 0.74 | 100 | 1012.3 |
| 20260505191605 | 46 | 0 | 0.0 | 3.0 | 0.04 | 1.07 | 0.74 | 100 | 1012.2 |
| 20260505190056 | 46 | 140 | 1.0 | 3.0 | 0.09 | 1.07 | 0.74 | 100 | 1011.9 |
| 20260505184556 | 46 | 163 | 1.0 | 4.0 | 0.13 | 1.48 | 0.73 | 100 | 1012.1 |
| 20260505183056 | 46 | 177 | 0.0 | 5.0 | 0.18 | 1.47 | 0.72 | 100 | 1012.5 |
| 20260505181555 | 46 | 75 | 1.0 | 6.0 | 0.22 | 1.44 | 0.69 | 100 | 1012.7 |
| 20260505180058 | 46 | 186 | 2.0 | 5.0 | 0.23 | 1.39 | 0.64 | 100 | 1012.5 |
| 20260505174558 | 46 | 198 | 1.0 | 9.0 | 0.25 | 1.70 | 0.59 | 100 | 1012.4 |
| 20260505173059 | 46 | 128 | 2.0 | 10.0 | 0.20 | 1.63 | 0.53 | 100 | 1012.5 |
| 20260505171556 | 46 | 221 | 2.0 | 9.0 | 0.14 | 1.56 | 0.46 | 100 | 1012.4 |
| 20260505170057 | 46 | 128 | 3.0 | 10.0 | 0.09 | 1.51 | 0.40 | 100 | 1012.3 |
| 20260505164556 | 47 | 71 | 3.0 | 9.0 | 0.03 | 1.44 | 0.34 | 100 | 1012.2 |
| 20260505163059 | 47 | 156 | 3.0 | 14.0 | 0.01 | 1.43 | 0.33 | 100 | 1011.9 |
| 20260505161556 | 51 | 155 | 3.0 | 15.0 | 0.00 | 1.41 | 0.31 | 100 | 1012.0 |
| 20260505153140 | 57 | 0 | 0.0 | 3.0 | 0.00 | 1.41 | 0.31 | 100 | 1010.7 |
| 20260505151558 | 57 | 0 | 0.0 | 4.0 | 0.00 | 1.41 | 0.31 | 100 | 1011.2 |
| 20260505140106 | 56 | 0 | 0.0 | 1.0 | 0.00 | 1.41 | 0.31 | 100 | 1011.5 |
| 20260505124600 | 58 | 156 | 1.0 | 5.0 | 0.00 | 1.41 | 0.31 | 100 | 1012.2 |